Rochester, NY

7:10 PM EST on February 27, 2017 (GMT -0500)
Greater Rochester International

Weather History for KROC - March, 2013

Change the Weather History Date:

Friday, March 29, 2013

  Actual Average Record
Temperature  
Mean Temperature 43 °F 39 °F  
Max Temperature 52 °F 48 °F 86 °F (1905)
Min Temperature 34 °F 30 °F 5 °F (1923)
Degree Days  
Heating Degree Days 22 26  
Month to date heating degree days 927 902  
Since 1 July heating degree days 5235 5688  
Cooling Degree Days 0 0  
Month to date cooling degree days 0 0  
Year to date cooling degree days 0 0  
Moisture  
Dew Point 30 °F    
Average Humidity 55    
Maximum Humidity 76    
Minimum Humidity 33    
Precipitation  
Precipitation 0.00 in 0.09 in 2.01 in (1873)
Month to date precipitation 0.83 2.33  
Year to date precipitation 5.14 6.69  
Snow  
Snow 0.00 in 0.30 in 14.50 in (1954)
Month to date snowfall 11.9 15.7  
Since 1 July snowfall 75.8 94.6  
Snow Depth 0.00 in    
Sea Level Pressure  
Sea Level Pressure 30.19 in    
Wind  
Wind Speed 10 mph (West)    
Max Wind Speed 15 mph    
Max Gust Speed 21 mph    
Visibility 10 miles    
Events      
T = Trace of Precipitation, MM = Missing Value Source: NWS Daily Summary

Daily Weather History Graph

Daily Weather History Graph

Search for Another Location

Airport or City:

Trip Planner

Search our weather history database for the weather conditions in past years. The results will help you decide how hot, cold, wet, or windy it might be!

Date:

Astronomy

Mar. 29, 2013 Rise Set
Actual Time 6:57 AM EDT 7:33 PM EDT
Civil Twilight 6:28 AM EDT 8:02 PM EDT
Nautical Twilight 5:55 AM EDT 8:36 PM EDT
Astronomical Twilight 5:20 AM EDT 9:11 PM EDT
Moon 10:37 PM EDT (3/29) 8:00 AM EDT (3/29)
Length of Visible Light 13h 33m
Length of Day
12h 36m
Waning Gibbous, 93% of the Moon is Illuminated
Mar 29
Waning Gibbous
Apr 3
Last Quarter
Apr 10
New
Apr 18
First Quarter
Apr 25
Full

Hourly Weather History & Observations

Time (EDT) Temp. Windchill Dew Point Humidity Pressure Visibility Wind Dir Wind Speed Gust Speed Precip Events Conditions
12:54 AM 37.9 °F 31.5 °F 30.9 °F 76% 30.22 in 10.0 mi West 9.2 mph - N/A   Overcast
1:54 AM 37.0 °F 31.0 °F 30.9 °F 79% 30.22 in 10.0 mi West 8.1 mph - N/A   Overcast
2:54 AM 37.0 °F 32.4 °F 30.9 °F 79% 30.22 in 10.0 mi West 5.8 mph - N/A   Overcast
3:54 AM 37.0 °F 31.6 °F 30.9 °F 79% 30.21 in 10.0 mi West 6.9 mph - N/A   Overcast
4:54 AM 37.0 °F 30.4 °F 30.9 °F 79% 30.21 in 10.0 mi West 9.2 mph - N/A   Overcast
5:32 AM 37.4 °F 31.4 °F 30.2 °F 75% 30.18 in 10.0 mi West 8.1 mph - N/A   Overcast
5:54 AM 37.0 °F 30.4 °F 30.9 °F 79% 30.21 in 10.0 mi WSW 9.2 mph - N/A   Overcast
6:54 AM 37.0 °F 31.0 °F 30.9 °F 79% 30.21 in 10.0 mi West 8.1 mph - N/A   Overcast
7:54 AM 37.0 °F 30.4 °F 30.9 °F 79% 30.22 in 10.0 mi West 9.2 mph - N/A   Overcast
8:54 AM 37.9 °F 32.7 °F 30.9 °F 76% 30.22 in 10.0 mi West 6.9 mph - N/A   Overcast
9:54 AM 39.0 °F 33.4 °F 32.0 °F 76% 30.22 in 10.0 mi West 8.1 mph - N/A   Overcast
10:54 AM 42.1 °F 37.1 °F 30.9 °F 65% 30.22 in 10.0 mi WNW 8.1 mph - N/A   Overcast
11:35 AM 44.6 °F 40.2 °F 32.0 °F 61% 30.19 in 10.0 mi West 8.1 mph - N/A   Overcast
11:54 AM 44.1 °F 39.5 °F 30.9 °F 60% 30.21 in 10.0 mi NW 8.1 mph - N/A   Overcast
12:39 PM 46.4 °F 41.5 °F 30.2 °F 53% 30.17 in 10.0 mi WNW 10.4 mph - N/A   Overcast
12:54 PM 46.9 °F - 32.0 °F 56% 30.19 in 10.0 mi West 11.5 mph - N/A   Overcast
1:54 PM 50.0 °F - 30.0 °F 46% 30.17 in 10.0 mi West 13.8 mph 20.7 mph N/A   Overcast
2:54 PM 48.9 °F - 27.0 °F 43% 30.15 in 10.0 mi NW 13.8 mph 19.6 mph N/A   Mostly Cloudy
3:54 PM 50.0 °F - 26.1 °F 39% 30.14 in 10.0 mi WNW 16.1 mph - N/A   Mostly Cloudy
4:54 PM 51.1 °F - 25.0 °F 36% 30.14 in 10.0 mi NNW 13.8 mph 23.0 mph N/A   Mostly Cloudy
5:54 PM 50.0 °F - 23.0 °F 35% 30.14 in 10.0 mi NW 15.0 mph 21.9 mph N/A   Mostly Cloudy
6:54 PM 48.0 °F - 26.1 °F 42% 30.14 in 10.0 mi NW 16.1 mph - N/A   Mostly Cloudy
7:54 PM 45.0 °F 38.2 °F 28.9 °F 53% 30.16 in 10.0 mi West 15.0 mph - N/A   Mostly Cloudy
8:54 PM 43.0 °F 37.2 °F 28.9 °F 58% 30.17 in 10.0 mi West 10.4 mph - N/A   Mostly Cloudy
9:54 PM 41.0 °F 34.7 °F 28.9 °F 62% 30.19 in 10.0 mi West 10.4 mph - N/A   Partly Cloudy
10:54 PM 37.9 °F 32.1 °F 28.9 °F 70% 30.19 in 10.0 mi West 8.1 mph 18.4 mph N/A   Partly Cloudy
11:54 PM 36.0 °F 29.6 °F 28.9 °F 76% 30.19 in 10.0 mi West 8.1 mph - N/A   Partly Cloudy